Location: Düngen
(52.0952°N, 10.0219°E)
Time: 19:17:57
(UTC+00:00)

Cosmos 2297 Rocket - Pass Details

Date: 11 March 2026
Orbit: 840 x 841 km, 71.0° (Epoch: 20 April)

Event Time Altitude Azimuth Distance (km) Brightness Sun altitude
Rises 21:44:25 0° 327° (NNW) 3,408 6.3 -36.6°
Reaches altitude 10° 21:46:53 10° 325° (NW) 2,469 5.4 -36.8°
Enters shadow 21:49:52 32° 315° (NW) 1,419 3.7 -37.1°
